Regional Weather Roundup
Issued by NWS Columbia, SC

Home | Current Version | Previous Version | Text Only | Print | Product List | Glossary On
Versions: 1 2 3 4 5 6 7 8 9 10 11 12 13 14 15 16 17 18 19 20 21 22 23 24 25 26 27
000
ASUS42 KCAE 240910
RWRCAE
REGIONAL WEATHER ROUNDUP
NATIONAL WEATHER SERVICE COLUMBIA SC
500 AM EDT SAT JUN 24 2017

NOTE: "FAIR" INDICATES FEW OR NO CLOUDS BELOW 12,000 FEET WITH NO
SIGNIFICANT WEATHER AND/OR OBSTRUCTIONS TO VISIBILITY.

NOT ALL STATIONS ARE QUALITY CONTROLLED BY THE NATIONAL
WEATHER SERVICE. USE DATA WITH CAUTION...ESPECIALLY
DEWPOINT OBSERVATIONS.

SCZ001>056-GAZ040-063>065-077-241000-
...UPSTATE SOUTH CAROLINA...

CITY           SKY/WX    TMP DP  RH WIND       PRES   REMARKS
ANDERSON       CLOUDY    75  71  87 W9        29.94R
LIBERTY        CLOUDY    72  71  98 SW3       29.92S
SPARTANBURG    CLOUDY    72  70  94 SW7       29.91S
CLEMSON        CLOUDY    72  72 100 W8        29.93S
GREENVILLE     CLOUDY    74  70  87 SW9       29.93F
GREENWOOD      PTCLDY    74  69  85 SW8       29.95S
GREER          CLOUDY    73  70  90 SW9       29.91S
ROCK HILL      PTCLDY    75  71  87 SW9       29.92R
CHESTER        SUNNY     73  70  88 W3        29.93R
LAURENS        CLOUDY    73  72  94 SW10      29.93S


...CENTRAL SOUTH CAROLINA...

CITY           SKY/WX    TMP DP  RH WIND       PRES   REMARKS
COLUMBIA APT   CLEAR     79  73  82 SW8       29.92S
COLUMBIA OWENS CLEAR     79  74  84 SW7       29.94R
MCENTIRE ANGB  CLEAR     77  74  91 S7        29.94S
ORANGEBURG     CLEAR     76  73  91 SW7       29.96S
SUMTER SHAW    CLEAR     78  73  85 SW15      29.91S
NEWBERRY       MOSUNNY   77  70  78 SW9       29.96S
AIKEN          FAIR      73  72  94 S6        29.99R
BARNWELL       FAIR      77  77 100 S6        29.96S
MANNING        FAIR      79  75  89 SW17G24   29.95S
CAMDEN         CLOUDY    79  73  83 SW9       29.93S
LANCASTER      MOSUNNY   77  73  88 SW9       29.91F
WINNSBORO      PTSUNNY   77  73  88 SW6       29.93S


...EASTERN AND COASTAL SOUTH CAROLINA...

CITY           SKY/WX    TMP DP  RH WIND       PRES   REMARKS
MYRTLE BEACH   PTCLDY    79  74  84 SW10G18   29.96R
N MYRTLE BCH   MOCLDY    80  75  84 SW16      29.94R
CONWAY         FAIR      77  72  83 S7        29.95S
MARION         FAIR      75  72  88 SW7       29.93S
HARTSVILLE     FAIR      75  72  88 SW6G16    29.92R
FLORENCE       CLEAR     77  75  93 SW10      29.92S
DARLINGTON     PTCLDY    77  74  90 SW13      29.91F
CHARLESTON APT PTCLDY    79  75  87 SW12      29.97R
WALTERBORO     PTSUNNY   77  73  88 SW5       29.98S
BEAUFORT       MOCLDY    79  77  94 SW6       29.98R


...EASTERN GEORGIA...

CITY           SKY/WX    TMP DP  RH WIND       PRES   REMARKS
AUGUSTA BUSH F CLEAR     78  74  87 S3        29.95R
AUGUSTA DANIEL CLEAR     79  72  79 SW5       29.97R
THOMSON        CLEAR     74  71  89 W3        30.00S
WASHINGTON     FAIR      75  73  94 SW5       29.96R
CLAXTON        FAIR      73  73  98 CALM      30.00R FOG
SYLVANIA       PTSUNNY   77  76  98 CALM      29.99S
STATESBORO     PTCLDY    77  77 100 S3        29.99R
SAVANNAH       CLEAR     77  72  84 SW6       30.00R


...SOUTHERN NORTH CAROLINA...

CITY           SKY/WX    TMP DP  RH WIND       PRES   REMARKS
CHARLOTTE      CLOUDY    74  70  87 W6        29.91S
MONROE         CLOUDY    77  71  82 SW10      29.89S
WADESBORO      PTSUNNY   78  72  82 S8        29.88S
ROCKINGHAM     MOSUNNY   77  75  94 SW10      29.90R
ASHEVILLE      CLOUDY    68  65  90 N8        29.97F

$$




USA.gov is the U.S. government's official web portal to all federal, state and local government web resources and services.